• En España
  • Lista de países
  • Para 7 días
  • Temperatura del agua
  • Mapa Satelital
  • El tiempo en el mapa
  • Informadores
  • user-avatar
    Iniciar sesión

    Tiempo cada hora Parakou

    Hoy, 21 Octubre, Domingo

    Tiempo Temperatura Precipitaciones Viento Presión Humedad
    00:00 +26°C° 0 mm 1 mps 726 mmHg 57%
    01:00 +26°C° 0 mm 1 mps 726 mmHg 60%
    02:00 +25°C° 0 mm 1 mps 725 mmHg 63%
    03:00 +25°C° 0 mm 1 mps 725 mmHg 65%
    04:00 +25°C° 0 mm 1 mps 725 mmHg 69%
    05:00 +24°C° 0 mm 1 mps 726 mmHg 72%
    06:00 +25°C° 0 mm 1 mps 726 mmHg 79%
    07:00 +27°C° 0 mm 1 mps 726 mmHg 72%
    08:00 +29°C° 0 mm 1 mps 727 mmHg 65%
    09:00 +32°C° 0 mm 1 mps 727 mmHg 59%
    10:00 +35°C° 0 mm 2 mps 726 mmHg 49%
    11:00 +36°C° 0 mm 2 mps 726 mmHg 40%
    12:00 +38°C° 0 mm 2 mps 726 mmHg 31%
    13:00 +38°C° 0 mm 2 mps 725 mmHg 30%
    14:00 +39°C° 0 mm 2 mps 725 mmHg 29%
    15:00 +39°C° 0 mm 2 mps 724 mmHg 28%
    16:00 +37°C° 0 mm 2 mps 724 mmHg 34%
    17:00 +33°C° 0 mm 1 mps 724 mmHg 39%
    18:00 +31°C° 0 mm 1 mps 724 mmHg 44%
    19:00 +31°C° 0 mm 1 mps 725 mmHg 48%
    20:00 +30°C° 0 mm 1 mps 726 mmHg 51%
    21:00 +29°C° 0 mm 1 mps 726 mmHg 55%
    22:00 +29°C° 0 mm 1 mps 726 mmHg 59%
    23:00 +28°C° 0 mm 2 mps 726 mmHg 63%

    Mañana, 22 Octubre, Lunes

    Tiempo Temperatura Precipitaciones Viento Presión Humedad
    00:00 +28°C° 0 mm 2 mps 726 mmHg 67%
    01:00 +27°C° 0 mm 2 mps 726 mmHg 73%
    02:00 +26°C° 0 mm 2 mps 726 mmHg 79%
    03:00 +26°C° 0 mm 2 mps 725 mmHg 85%
    04:00 +25°C° 0 mm 2 mps 726 mmHg 88%
    05:00 +25°C° 0 mm 1 mps 726 mmHg 91%
    06:00 +25°C° 0 mm 1 mps 726 mmHg 94%
    07:00 +27°C° 0 mm 1 mps 726 mmHg 84%
    08:00 +29°C° 0 mm 2 mps 727 mmHg 74%
    09:00 +31°C° 0 mm 2 mps 728 mmHg 64%
    10:00 +34°C° 0 mm 2 mps 727 mmHg 57%
    11:00 +35°C° 0 mm 1 mps 727 mmHg 50%
    12:00 +37°C° 0 mm 1 mps 726 mmHg 43%
    13:00 +37°C° 0 mm 1 mps 726 mmHg 41%
    14:00 +37°C° 0 mm 1 mps 725 mmHg 40%
    15:00 +37°C° 0 mm 1 mps 724 mmHg 38%
    16:00 +35°C° 0 mm 1 mps 724 mmHg 42%
    17:00 +33°C° 0 mm 1 mps 725 mmHg 46%
    18:00 +32°C° 0 mm 1 mps 725 mmHg 50%
    19:00 +31°C° 0 mm 2 mps 725 mmHg 54%
    20:00 +30°C° 0 mm 2 mps 726 mmHg 58%
    21:00 +29°C° 0 mm 2 mps 727 mmHg 62%
    22:00 +29°C° 0 mm 2 mps 727 mmHg 67%
    23:00 +28°C° 0 mm 2 mps 727 mmHg 71%

    Pasado mañana, 23 Octubre, Martes

    Tiempo Temperatura Precipitaciones Viento Presión Humedad
    00:00 +27°C° 0 mm 2 mps 727 mmHg 76%
    01:00 +27°C° 0 mm 2 mps 727 mmHg 79%
    02:00 +26°C° 0 mm 2 mps 726 mmHg 82%
    03:00 +26°C° 0 mm 2 mps 726 mmHg 85%
    04:00 +26°C° 0 mm 2 mps 726 mmHg 87%
    05:00 +25°C° 0 mm 2 mps 726 mmHg 89%
    06:00 +25°C° 0 mm 1 mps 726 mmHg 91%
    07:00 +27°C° 0 mm 1 mps 727 mmHg 82%
    08:00 +29°C° 0 mm 2 mps 728 mmHg 72%
    09:00 +32°C° 0 mm 2 mps 728 mmHg 62%
    10:00 +34°C° 0 mm 1 mps 728 mmHg 54%
    11:00 +37°C° 0 mm 1 mps 727 mmHg 47%
    12:00 +37°C° 0 mm 0 mps 727 mmHg 39%
    13:00 +37°C° 0 mm 0 mps 726 mmHg 35%
    14:00 +40°C° 0 mm 1 mps 725 mmHg 32%
    15:00 +39°C° 0 mm 1 mps 725 mmHg 29%
    16:00 +36°C° 0 mm 1 mps 725 mmHg 33%
    17:00 +34°C° 0 mm 1 mps 725 mmHg 37%
    18:00 +32°C° 0 mm 1 mps 725 mmHg 42%
    19:00 +31°C° 0 mm 1 mps 726 mmHg 45%
    20:00 +31°C° 0 mm 2 mps 726 mmHg 49%
    21:00 +30°C° 0 mm 2 mps 727 mmHg 53%
    22:00 +29°C° 0 mm 2 mps 727 mmHg 60%
    23:00 +28°C° 0 mm 2 mps 727 mmHg 67%

    24 Octubre, Miércoles

    Tiempo Temperatura Precipitaciones Viento Presión Humedad
    00:00 +28°C° 0 mm 2 mps 727 mmHg 75%
    01:00 +27°C° 0 mm 3 mps 726 mmHg 79%
    02:00 +27°C° 0 mm 3 mps 726 mmHg 83%
    03:00 +26°C° 0 mm 3 mps 725 mmHg 88%
    04:00 +26°C° 0 mm 3 mps 726 mmHg 88%
    05:00 +26°C° 0 mm 3 mps 726 mmHg 89%
    06:00 +26°C° 0 mm 2 mps 726 mmHg 89%
    07:00 +28°C° 0 mm 2 mps 727 mmHg 83%
    08:00 +29°C° 0 mm 3 mps 727 mmHg 76%
    09:00 +31°C° 0 mm 3 mps 728 mmHg 69%
    10:00 +34°C° 0 mm 2 mps 727 mmHg 61%
    11:00 +35°C° 0 mm 2 mps 727 mmHg 53%
    12:00 +37°C° 0 mm 2 mps 726 mmHg 45%
    13:00 +37°C° 0 mm 2 mps 726 mmHg 44%
    14:00 +37°C° 0 mm 2 mps 725 mmHg 42%
    15:00 +38°C° 0 mm 2 mps 724 mmHg 41%
    16:00 +36°C° 0 mm 2 mps 725 mmHg 48%
    17:00 +34°C° 0 mm 3 mps 725 mmHg 54%
    18:00 +31°C° 0 mm 3 mps 725 mmHg 61%
    19:00 +30°C° 0 mm 3 mps 726 mmHg 66%
    20:00 +30°C° 0 mm 3 mps 726 mmHg 71%
    21:00 +29°C° 0 mm 4 mps 727 mmHg 76%
    22:00 +28°C° 0 mm 3 mps 727 mmHg 78%
    23:00 +28°C° 0 mm 3 mps 727 mmHg 80%

    25 Octubre, Jueves

    Tiempo Temperatura Precipitaciones Viento Presión Humedad
    00:00 +27°C° 0 mm 3 mps 726 mmHg 82%
    01:00 +27°C° 0 mm 3 mps 726 mmHg 84%
    02:00 +26°C° 0 mm 3 mps 726 mmHg 86%
    03:00 +26°C° 0 mm 3 mps 725 mmHg 88%
    04:00 +25°C° 0 mm 2 mps 725 mmHg 90%
    05:00 +25°C° 0 mm 2 mps 726 mmHg 92%
    06:00 +25°C° 0 mm 2 mps 726 mmHg 94%
    07:00 +27°C° 0 mm 2 mps 727 mmHg 85%
    08:00 +29°C° 0 mm 2 mps 727 mmHg 76%
    09:00 +30°C° 0 mm 2 mps 728 mmHg 66%
    10:00 +32°C° 0 mm 2 mps 727 mmHg 60%
    11:00 +35°C° 0 mm 2 mps 726 mmHg 53%
    12:00 +37°C° 0 mm 2 mps 726 mmHg 46%
    13:00 +37°C° 0 mm 2 mps 725 mmHg 43%
    14:00 +36°C° 0 mm 1 mps 724 mmHg 41%
    15:00 +37°C° 0 mm 1 mps 724 mmHg 39%
    16:00 +35°C° 0 mm 1 mps 724 mmHg 44%
    17:00 +33°C° 0 mm 1 mps 725 mmHg 49%
    18:00 +32°C° 0 mm 2 mps 725 mmHg 55%
    19:00 +31°C° 0 mm 2 mps 725 mmHg 58%
    20:00 +30°C° 0 mm 2 mps 726 mmHg 61%
    21:00 +29°C° 0 mm 2 mps 726 mmHg 63%
    22:00 +29°C° 0 mm 2 mps 726 mmHg 67%
    23:00 +28°C° 0 mm 2 mps 726 mmHg 71%

    26 Octubre, Viernes

    Tiempo Temperatura Precipitaciones Viento Presión Humedad
    00:00 +28°C° 0 mm 3 mps 726 mmHg 75%
    01:00 +27°C° 0 mm 2 mps 725 mmHg 79%
    02:00 +27°C° 0 mm 2 mps 725 mmHg 82%
    03:00 +26°C° 0 mm 2 mps 725 mmHg 86%
    04:00 +26°C° 0 mm 2 mps 725 mmHg 88%
    05:00 +25°C° 0 mm 2 mps 726 mmHg 90%
    06:00 +25°C° 0 mm 2 mps 726 mmHg 92%
    07:00 +27°C° 0 mm 2 mps 726 mmHg 83%
    08:00 +29°C° 0 mm 2 mps 727 mmHg 75%
    09:00 +31°C° 0 mm 3 mps 727 mmHg 67%
    10:00 +34°C° 0 mm 2 mps 727 mmHg 59%
    11:00 +35°C° 0 mm 2 mps 726 mmHg 52%
    12:00 +37°C° 0 mm 2 mps 726 mmHg 45%
    13:00 +37°C° 0 mm 1 mps 725 mmHg 43%
    14:00 +37°C° 0 mm 1 mps 725 mmHg 42%
    15:00 +37°C° 0 mm 1 mps 724 mmHg 40%
    16:00 +36°C° 0 mm 1 mps 724 mmHg 45%
    17:00 +34°C° 0 mm 1 mps 725 mmHg 50%
    18:00 +32°C° 0 mm 2 mps 725 mmHg 55%
    19:00 +31°C° 0.1 mm 2 mps 726 mmHg 60%
    20:00 +30°C° 0.1 mm 2 mps 726 mmHg 65%
    21:00 +29°C° 0.1 mm 3 mps 727 mmHg 69%
    22:00 +29°C° 0.1 mm 3 mps 727 mmHg 74%
    23:00 +28°C° 0.1 mm 3 mps 726 mmHg 79%
    Mostrar más